Year,Month,Day,Hour,Minute,Value (Times are PST for temperature in C)
2013,09,30,00,00,6.70
2013,09,30,00,01,6.70
2013,09,30,00,02,6.70
2013,09,30,00,03,6.70
2013,09,30,00,04,6.60
2013,09,30,00,05,6.60
2013,09,30,00,06,6.60
2013,09,30,00,07,6.60
2013,09,30,00,08,6.60
2013,09,30,00,09,6.60
2013,09,30,00,10,6.60
2013,09,30,00,11,6.60
2013,09,30,00,12,6.60
2013,09,30,00,13,6.60
2013,09,30,00,14,6.60
2013,09,30,00,15,6.50
2013,09,30,00,16,6.50
2013,09,30,00,17,6.50
2013,09,30,00,18,6.50
2013,09,30,00,19,6.50
2013,09,30,00,20,6.50
2013,09,30,00,21,6.50
2013,09,30,00,22,6.50
2013,09,30,00,23,6.40
2013,09,30,00,24,6.40
2013,09,30,00,25,6.40
2013,09,30,00,26,6.40
2013,09,30,00,27,6.40
2013,09,30,00,28,6.40
2013,09,30,00,29,6.40
2013,09,30,00,30,6.40
2013,09,30,00,31,6.40
2013,09,30,00,32,6.40
2013,09,30,00,33,6.40
2013,09,30,00,34,6.40
2013,09,30,00,35,6.40
2013,09,30,00,36,6.30
2013,09,30,00,37,6.30
2013,09,30,00,38,6.30
2013,09,30,00,39,6.30
2013,09,30,00,40,6.30
2013,09,30,00,41,6.30
2013,09,30,00,42,6.30
2013,09,30,00,43,6.30
2013,09,30,00,44,6.30
2013,09,30,00,45,6.30
2013,09,30,00,46,6.30
2013,09,30,00,47,6.30
2013,09,30,00,48,6.40
2013,09,30,00,49,6.40
2013,09,30,00,50,6.40
2013,09,30,00,51,6.40
2013,09,30,00,52,6.30
2013,09,30,00,53,6.30
2013,09,30,00,54,6.30
2013,09,30,00,55,6.30
2013,09,30,00,56,6.30
2013,09,30,00,57,6.30
2013,09,30,00,58,6.30
2013,09,30,00,59,6.30
2013,09,30,01,00,6.30
2013,09,30,01,01,6.30
2013,09,30,01,02,6.30
2013,09,30,01,03,6.30
2013,09,30,01,04,6.30
2013,09,30,01,05,6.30
2013,09,30,01,06,6.40
2013,09,30,01,07,6.40
2013,09,30,01,08,6.40
2013,09,30,01,09,6.40
2013,09,30,01,10,6.40
2013,09,30,01,11,6.40
2013,09,30,01,12,6.40
2013,09,30,01,13,6.40
2013,09,30,01,14,6.50
2013,09,30,01,15,6.50
2013,09,30,01,16,6.50
2013,09,30,01,17,6.50
2013,09,30,01,18,6.50
2013,09,30,01,19,6.50
2013,09,30,01,20,6.50
2013,09,30,01,21,6.50
2013,09,30,01,22,6.50
2013,09,30,01,23,6.50
2013,09,30,01,24,6.50
2013,09,30,01,25,6.50
2013,09,30,01,26,6.50
2013,09,30,01,27,6.50
2013,09,30,01,28,6.50
2013,09,30,01,29,6.50
2013,09,30,01,30,6.50
2013,09,30,01,31,6.60
2013,09,30,01,32,6.60
2013,09,30,01,33,6.60
2013,09,30,01,34,6.60
2013,09,30,01,35,6.60
2013,09,30,01,36,6.60
2013,09,30,01,37,6.60
2013,09,30,01,38,6.60
2013,09,30,01,39,6.60
2013,09,30,01,40,6.60
2013,09,30,01,41,6.60
2013,09,30,01,42,6.70
2013,09,30,01,43,6.70
2013,09,30,01,44,6.70
2013,09,30,01,45,6.80
2013,09,30,01,46,6.80
2013,09,30,01,47,6.80
2013,09,30,01,48,6.80
2013,09,30,01,49,6.80
2013,09,30,01,50,6.80
2013,09,30,01,51,6.80
2013,09,30,01,52,6.80
2013,09,30,01,53,6.80
2013,09,30,01,54,6.80
2013,09,30,01,55,6.80
2013,09,30,01,56,6.80
2013,09,30,01,57,6.80
2013,09,30,01,58,6.90
2013,09,30,01,59,6.90
2013,09,30,02,00,6.90
2013,09,30,02,01,6.90
2013,09,30,02,02,6.90
2013,09,30,02,03,6.90
2013,09,30,02,04,7.00
2013,09,30,02,05,7.00
2013,09,30,02,06,7.00
2013,09,30,02,07,7.00
2013,09,30,02,08,7.10
2013,09,30,02,09,7.10
2013,09,30,02,10,7.10
2013,09,30,02,11,7.10
2013,09,30,02,12,7.10
2013,09,30,02,13,7.20
2013,09,30,02,14,7.20
2013,09,30,02,15,7.20
2013,09,30,02,16,7.20
2013,09,30,02,17,7.20
2013,09,30,02,18,7.30
2013,09,30,02,19,7.30
2013,09,30,02,20,7.30
2013,09,30,02,21,7.30
2013,09,30,02,22,7.40
2013,09,30,02,23,7.40
2013,09,30,02,24,7.40
2013,09,30,02,25,7.40
2013,09,30,02,26,7.40
2013,09,30,02,27,7.50
2013,09,30,02,28,7.50
2013,09,30,02,29,7.50
2013,09,30,02,30,7.50
2013,09,30,02,31,7.50
2013,09,30,02,32,7.60
2013,09,30,02,33,7.60
2013,09,30,02,34,7.60
2013,09,30,02,35,7.60
2013,09,30,02,36,7.60
2013,09,30,02,37,7.60
2013,09,30,02,38,7.70
2013,09,30,02,39,7.70
2013,09,30,02,40,7.70
2013,09,30,02,41,7.70
2013,09,30,02,42,7.70
2013,09,30,02,43,7.80
2013,09,30,02,44,7.80
2013,09,30,02,45,7.80
2013,09,30,02,46,7.90
2013,09,30,02,47,7.90
2013,09,30,02,48,8.00
2013,09,30,02,49,8.10
2013,09,30,02,50,8.10
2013,09,30,02,51,8.20
2013,09,30,02,52,8.30
2013,09,30,02,53,8.30
2013,09,30,02,54,8.40
2013,09,30,02,55,8.40
2013,09,30,02,56,8.40
2013,09,30,02,57,8.50
2013,09,30,02,58,8.60
2013,09,30,02,59,8.60
2013,09,30,03,00,8.70
2013,09,30,03,01,8.70
2013,09,30,03,02,8.80
2013,09,30,10,03,8.80
2013,09,30,10,04,8.80
2013,09,30,10,05,8.80
2013,09,30,10,06,8.80
2013,09,30,10,07,8.90
2013,09,30,10,08,8.90
2013,09,30,10,09,9.00
2013,09,30,10,10,9.00
2013,09,30,10,11,9.00
2013,09,30,10,12,9.10
2013,09,30,10,13,9.10
2013,09,30,10,14,9.10
2013,09,30,10,15,9.10
2013,09,30,10,16,9.10
2013,09,30,10,17,9.10
2013,09,30,10,18,9.10
2013,09,30,10,19,9.10
2013,09,30,10,20,9.10
2013,09,30,10,21,9.10
2013,09,30,10,22,9.10
2013,09,30,10,23,9.10
2013,09,30,10,24,9.10
2013,09,30,10,25,9.10
2013,09,30,10,26,9.10
2013,09,30,10,27,9.10
2013,09,30,10,28,9.10
2013,09,30,10,29,9.10
2013,09,30,10,30,9.20
2013,09,30,10,31,9.20
2013,09,30,10,32,9.20
2013,09,30,10,33,9.20
2013,09,30,10,34,9.20
2013,09,30,10,35,9.20
2013,09,30,10,36,9.20
2013,09,30,10,37,9.20
2013,09,30,10,38,9.20
2013,09,30,10,39,9.20
2013,09,30,10,40,9.20
2013,09,30,10,41,9.20
2013,09,30,10,42,9.20
2013,09,30,10,43,9.20
2013,09,30,10,44,9.20
2013,09,30,10,45,9.20
2013,09,30,10,46,9.20
2013,09,30,10,47,9.20
2013,09,30,10,48,9.20
2013,09,30,10,49,9.30
2013,09,30,10,50,9.30
2013,09,30,10,51,9.30
2013,09,30,10,52,9.30
2013,09,30,10,53,9.30
2013,09,30,10,54,9.30
2013,09,30,10,55,9.30
2013,09,30,10,56,9.30
2013,09,30,10,57,9.30
2013,09,30,10,58,9.30
2013,09,30,10,59,9.30
2013,09,30,11,00,9.30
2013,09,30,11,01,9.40
2013,09,30,11,02,9.40
2013,09,30,11,03,9.50
2013,09,30,11,04,9.70
2013,09,30,11,05,9.80
2013,09,30,11,06,9.90
2013,09,30,11,07,9.90
2013,09,30,11,08,10.00
2013,09,30,11,09,10.10
2013,09,30,11,10,10.20
2013,09,30,11,11,10.20
2013,09,30,11,12,10.30
2013,09,30,11,13,10.30
2013,09,30,11,14,10.40
2013,09,30,11,15,10.40
2013,09,30,11,16,10.40
2013,09,30,11,17,10.50
2013,09,30,11,18,10.50
2013,09,30,11,19,10.60
2013,09,30,11,20,10.60
2013,09,30,11,21,10.60
2013,09,30,11,22,10.60
2013,09,30,11,23,10.70
2013,09,30,11,24,10.70
2013,09,30,11,25,10.70
2013,09,30,11,26,10.70
2013,09,30,11,27,10.70
2013,09,30,11,28,10.70
2013,09,30,11,29,10.70
2013,09,30,11,30,10.70
2013,09,30,11,31,10.80
2013,09,30,11,32,10.80
2013,09,30,11,33,10.80
2013,09,30,11,34,10.80
2013,09,30,11,35,10.80
2013,09,30,11,36,10.80
2013,09,30,11,37,10.90
2013,09,30,11,38,10.90
2013,09,30,11,39,10.90
2013,09,30,11,40,10.90
2013,09,30,11,41,11.00
2013,09,30,11,42,11.00
2013,09,30,11,43,11.00
2013,09,30,11,44,11.10
2013,09,30,11,45,11.10
2013,09,30,11,46,11.10
2013,09,30,11,47,11.20
2013,09,30,11,48,11.20
2013,09,30,11,49,11.20
2013,09,30,11,50,11.30
2013,09,30,11,51,11.30
2013,09,30,11,52,11.30
2013,09,30,11,53,11.30
2013,09,30,11,54,11.40
2013,09,30,11,55,11.40
2013,09,30,11,56,11.40
2013,09,30,11,57,11.40
2013,09,30,11,58,11.40
2013,09,30,11,59,11.50
2013,09,30,12,00,11.50
2013,09,30,12,01,11.50
2013,09,30,12,02,11.50
2013,09,30,12,03,11.50
2013,09,30,12,04,11.60
2013,09,30,12,05,11.60
2013,09,30,12,06,11.70
2013,09,30,12,07,11.70
2013,09,30,12,08,11.80
2013,09,30,12,09,11.90
2013,09,30,12,10,12.00
2013,09,30,12,11,12.10
2013,09,30,12,12,12.10
2013,09,30,12,13,12.20
2013,09,30,12,14,12.20
2013,09,30,12,15,12.20
2013,09,30,12,16,12.20
2013,09,30,12,17,12.20
2013,09,30,12,18,12.30
2013,09,30,12,19,12.30
2013,09,30,12,20,12.30
2013,09,30,12,21,12.20
2013,09,30,12,22,12.20
2013,09,30,12,23,12.20
2013,09,30,12,24,12.20
2013,09,30,12,25,12.10
2013,09,30,12,26,12.00
2013,09,30,12,27,11.90
2013,09,30,12,28,11.80
2013,09,30,12,29,11.70
2013,09,30,12,30,11.60
2013,09,30,12,31,11.50
2013,09,30,12,32,11.40
2013,09,30,12,33,11.30
2013,09,30,12,34,11.20
2013,09,30,12,35,11.20
2013,09,30,12,36,11.10
2013,09,30,12,37,11.10
2013,09,30,12,38,11.10
2013,09,30,12,39,11.00
2013,09,30,12,40,11.00
2013,09,30,12,41,11.00
2013,09,30,12,42,10.90
2013,09,30,12,43,10.90
2013,09,30,12,44,10.90
2013,09,30,12,45,11.00
2013,09,30,12,46,11.00
2013,09,30,12,47,11.00
2013,09,30,12,48,11.00
2013,09,30,12,49,11.00
2013,09,30,12,50,11.10
2013,09,30,12,51,11.10
2013,09,30,12,52,11.10
2013,09,30,12,53,11.10
2013,09,30,12,54,11.20
2013,09,30,12,55,11.20
2013,09,30,12,56,11.20
2013,09,30,12,57,11.20
2013,09,30,12,58,11.30
2013,09,30,12,59,11.30
2013,09,30,13,00,11.40
2013,09,30,13,01,11.40
2013,09,30,13,02,11.50
2013,09,30,13,03,11.50
2013,09,30,13,04,11.60
2013,09,30,13,05,11.70
2013,09,30,13,06,11.70
2013,09,30,13,07,11.80
2013,09,30,13,08,11.90
2013,09,30,13,09,12.00
2013,09,30,13,10,12.10
2013,09,30,13,11,12.20
2013,09,30,13,12,12.30
2013,09,30,13,13,12.30
2013,09,30,13,14,12.40
2013,09,30,13,15,12.50
2013,09,30,13,16,12.50
2013,09,30,13,17,12.60
2013,09,30,13,18,12.70
2013,09,30,13,19,12.80
2013,09,30,13,20,12.80
2013,09,30,13,21,12.90
2013,09,30,13,22,12.90
2013,09,30,13,23,13.00
2013,09,30,13,24,13.00
2013,09,30,13,25,13.10
2013,09,30,13,26,13.10
2013,09,30,13,27,13.10
2013,09,30,13,28,13.20
2013,09,30,13,29,13.20
2013,09,30,13,30,13.20
2013,09,30,13,31,13.30
2013,09,30,13,32,13.30
2013,09,30,13,33,13.30
2013,09,30,13,34,13.30
2013,09,30,13,35,13.30
2013,09,30,13,36,13.30
2013,09,30,13,37,13.30
2013,09,30,13,38,13.40
2013,09,30,13,39,13.40
2013,09,30,13,40,13.40
2013,09,30,13,41,13.30
2013,09,30,13,42,13.30
2013,09,30,13,43,13.20
2013,09,30,13,44,13.20
2013,09,30,13,45,13.10
2013,09,30,13,46,13.10
2013,09,30,13,47,13.10
2013,09,30,13,48,13.10
2013,09,30,13,49,13.10
2013,09,30,13,50,13.20
2013,09,30,13,51,13.20
2013,09,30,13,52,13.20
2013,09,30,13,53,13.20
2013,09,30,13,54,13.30
2013,09,30,13,55,13.30
2013,09,30,13,56,13.30
2013,09,30,13,57,13.40
2013,09,30,13,58,13.40
2013,09,30,13,59,13.50
2013,09,30,14,00,13.50
2013,09,30,14,01,13.50
2013,09,30,14,02,13.50
2013,09,30,14,03,13.50
2013,09,30,14,04,13.50
2013,09,30,14,05,13.50
2013,09,30,14,06,13.50
2013,09,30,14,07,13.50
2013,09,30,14,08,13.50
2013,09,30,14,09,13.50
2013,09,30,14,10,13.40
2013,09,30,14,11,13.40
2013,09,30,14,12,13.40
2013,09,30,14,13,13.30
2013,09,30,14,14,13.30
2013,09,30,14,15,13.30
2013,09,30,14,16,13.20
2013,09,30,14,17,13.20
2013,09,30,14,18,13.20
2013,09,30,14,19,13.20
2013,09,30,14,20,13.30
2013,09,30,14,21,13.30
2013,09,30,14,22,13.30
2013,09,30,14,23,13.40
2013,09,30,14,24,13.40
2013,09,30,14,25,13.50
2013,09,30,14,26,13.60
2013,09,30,14,27,13.60
2013,09,30,14,28,13.70
2013,09,30,14,29,13.70
2013,09,30,14,30,13.80
2013,09,30,14,31,13.80
2013,09,30,14,32,13.80
2013,09,30,14,33,13.80
2013,09,30,14,34,13.80
2013,09,30,14,35,13.80
2013,09,30,14,36,13.80
2013,09,30,14,37,13.80
2013,09,30,14,38,13.90
2013,09,30,14,39,13.90
2013,09,30,14,40,14.00
2013,09,30,14,41,14.00
2013,09,30,14,42,14.10
2013,09,30,14,43,14.10
2013,09,30,14,44,14.20
2013,09,30,14,45,14.20
2013,09,30,14,46,14.20
2013,09,30,14,47,14.20
2013,09,30,14,48,14.10
2013,09,30,14,49,14.10
2013,09,30,14,50,14.10
2013,09,30,14,51,14.00
2013,09,30,14,52,14.00
2013,09,30,14,53,13.90
2013,09,30,14,54,13.80
2013,09,30,14,55,13.80
2013,09,30,14,56,13.80
2013,09,30,14,57,13.70
2013,09,30,14,58,13.70
2013,09,30,14,59,13.70
2013,09,30,15,00,13.60
2013,09,30,15,01,13.60
2013,09,30,15,02,13.50
2013,09,30,15,03,13.50
2013,09,30,15,04,13.40
2013,09,30,15,05,13.40
2013,09,30,15,06,13.40
2013,09,30,15,07,13.30
2013,09,30,15,08,13.30
2013,09,30,15,09,13.30
2013,09,30,15,10,13.30
2013,09,30,15,11,13.30
2013,09,30,15,12,13.30
2013,09,30,15,13,13.20
2013,09,30,15,14,13.20
2013,09,30,15,15,13.20
2013,09,30,15,16,13.20
2013,09,30,15,17,13.20
2013,09,30,15,18,13.20
2013,09,30,15,19,13.20
2013,09,30,15,20,13.20
2013,09,30,15,21,13.10
2013,09,30,15,22,13.10
2013,09,30,15,23,13.10
2013,09,30,15,24,13.10
2013,09,30,15,25,13.10
2013,09,30,15,26,13.10
2013,09,30,15,27,13.10
2013,09,30,15,28,13.10
2013,09,30,15,29,13.00
2013,09,30,15,30,13.00
2013,09,30,15,31,13.00
2013,09,30,15,32,13.00
2013,09,30,15,33,13.00
2013,09,30,15,34,13.00
2013,09,30,15,35,13.00
2013,09,30,15,36,13.00
2013,09,30,15,37,13.00
2013,09,30,15,38,13.10
2013,09,30,15,39,13.10
2013,09,30,15,40,13.10
2013,09,30,15,41,13.10
2013,09,30,15,42,13.10
2013,09,30,15,43,13.10
2013,09,30,15,44,13.10
2013,09,30,15,45,13.10
2013,09,30,15,46,13.20
2013,09,30,15,47,13.20
2013,09,30,15,48,13.10
2013,09,30,15,49,13.10
2013,09,30,15,50,13.10
2013,09,30,15,51,13.10
2013,09,30,15,52,13.10
2013,09,30,15,53,13.00
2013,09,30,15,54,12.90
2013,09,30,15,55,12.90
2013,09,30,15,56,12.90
2013,09,30,15,57,12.90
2013,09,30,15,58,12.90
2013,09,30,15,59,12.90
2013,09,30,16,00,12.80
2013,09,30,16,01,12.80
2013,09,30,16,02,12.80
2013,09,30,16,03,12.80
2013,09,30,16,04,12.80
2013,09,30,16,05,12.70
2013,09,30,16,06,12.70
2013,09,30,16,07,12.70
2013,09,30,16,08,12.60
2013,09,30,16,09,12.60
2013,09,30,16,10,12.60
2013,09,30,16,11,12.50
2013,09,30,16,12,12.50
2013,09,30,16,13,12.50
2013,09,30,16,14,12.50
2013,09,30,16,15,12.50
2013,09,30,16,16,12.50
2013,09,30,16,17,12.50
2013,09,30,16,18,12.50
2013,09,30,16,19,12.50
2013,09,30,16,20,12.50
2013,09,30,16,21,12.50
2013,09,30,16,22,12.50
2013,09,30,16,23,12.50
2013,09,30,16,24,12.50
2013,09,30,16,25,12.60
2013,09,30,16,26,12.60
2013,09,30,16,27,12.60
2013,09,30,16,28,12.50
2013,09,30,16,29,12.50
2013,09,30,16,30,12.50
2013,09,30,16,31,12.60
2013,09,30,16,32,12.60
2013,09,30,16,33,12.50
2013,09,30,16,34,12.50
2013,09,30,16,35,12.50
2013,09,30,16,36,12.50
2013,09,30,16,37,12.40
2013,09,30,16,38,12.40
2013,09,30,16,39,12.40
2013,09,30,16,40,12.40
2013,09,30,16,41,12.40
2013,09,30,16,42,12.40
2013,09,30,16,43,12.40
2013,09,30,16,44,12.40
2013,09,30,16,45,12.30
2013,09,30,16,46,12.30
2013,09,30,16,47,12.30
2013,09,30,16,48,12.30
2013,09,30,16,49,12.30
2013,09,30,16,50,12.20
2013,09,30,16,51,12.20
2013,09,30,16,52,12.20
2013,09,30,16,53,12.20
2013,09,30,16,54,12.20
2013,09,30,16,55,12.20
2013,09,30,16,56,12.30
2013,09,30,16,57,12.30
2013,09,30,16,58,12.30
2013,09,30,16,59,12.30
2013,09,30,17,00,12.30
2013,09,30,17,01,12.30
2013,09,30,17,02,12.30
2013,09,30,17,03,12.30
2013,09,30,17,04,12.30
2013,09,30,17,05,12.30
2013,09,30,17,06,12.20
2013,09,30,17,07,12.20
2013,09,30,17,08,12.20
2013,09,30,17,09,12.20
2013,09,30,17,10,12.10
2013,09,30,17,11,12.10
2013,09,30,17,12,12.00
2013,09,30,17,13,11.90
2013,09,30,17,14,11.90
2013,09,30,17,15,11.90
2013,09,30,17,16,11.90
2013,09,30,17,17,11.90
2013,09,30,17,18,11.90
2013,09,30,17,19,11.90
2013,09,30,17,20,11.90
2013,09,30,17,21,11.90
2013,09,30,17,22,11.90
2013,09,30,17,23,11.90
2013,09,30,17,24,11.90
2013,09,30,17,25,11.90
2013,09,30,17,26,11.90
2013,09,30,17,27,11.90
2013,09,30,17,28,11.80
2013,09,30,17,29,11.80
2013,09,30,17,30,11.70
2013,09,30,17,31,11.70
2013,09,30,17,32,11.70
2013,09,30,17,33,11.70
2013,09,30,17,34,11.80
2013,09,30,17,35,11.80
2013,09,30,17,36,11.80
2013,09,30,17,37,11.80
2013,09,30,17,38,11.80
2013,09,30,17,39,11.80
2013,09,30,17,40,11.80
2013,09,30,17,41,11.90
2013,09,30,17,42,11.90
2013,09,30,17,43,11.90
2013,09,30,17,44,11.90
2013,09,30,17,45,12.00
2013,09,30,17,46,12.00
2013,09,30,17,47,12.00
2013,09,30,17,48,12.10
2013,09,30,17,49,12.10
2013,09,30,17,50,12.20
2013,09,30,17,51,12.20
2013,09,30,17,52,12.30
2013,09,30,17,53,12.30
2013,09,30,17,54,12.30
2013,09,30,17,55,12.40
2013,09,30,17,56,12.40
2013,09,30,17,57,12.40
2013,09,30,17,58,12.40
2013,09,30,17,59,12.40
2013,09,30,18,00,12.40
2013,09,30,18,01,12.30
2013,09,30,18,02,12.30
2013,09,30,18,03,12.30
2013,09,30,18,04,12.30
2013,09,30,18,05,12.30
2013,09,30,18,06,12.20
2013,09,30,18,07,12.20
2013,09,30,18,08,12.20
2013,09,30,18,09,12.20
2013,09,30,18,10,12.20
2013,09,30,18,11,12.20
2013,09,30,18,12,12.20
2013,09,30,18,13,12.20
2013,09,30,18,14,12.20
2013,09,30,18,15,12.20
2013,09,30,18,16,12.20
2013,09,30,18,17,12.20
2013,09,30,18,18,12.20
2013,09,30,18,19,12.20
2013,09,30,18,20,12.20
2013,09,30,18,21,12.10
2013,09,30,18,22,12.10
2013,09,30,18,23,12.10
2013,09,30,18,24,12.00
2013,09,30,18,25,12.00
2013,09,30,18,26,11.90
2013,09,30,18,27,11.90
2013,09,30,18,28,11.90
2013,09,30,18,29,11.90
2013,09,30,18,30,11.90
2013,09,30,18,31,11.90
2013,09,30,18,32,11.80
2013,09,30,18,33,11.80
2013,09,30,18,34,11.80
2013,09,30,18,35,11.70
2013,09,30,18,36,11.70
2013,09,30,18,37,11.60
2013,09,30,18,38,11.60
2013,09,30,18,39,11.60
2013,09,30,18,40,11.50
2013,09,30,18,41,11.50
2013,09,30,18,42,11.40
2013,09,30,18,43,11.40
2013,09,30,18,44,11.40
2013,09,30,18,45,11.30
2013,09,30,18,46,11.30
2013,09,30,18,47,11.30
2013,09,30,18,48,11.20
2013,09,30,18,49,11.20
2013,09,30,18,50,11.10
2013,09,30,18,51,11.10
2013,09,30,18,52,11.00
2013,09,30,18,53,10.90
2013,09,30,18,54,10.90
2013,09,30,18,55,10.80
2013,09,30,18,56,10.80
2013,09,30,18,57,10.80
2013,09,30,18,58,10.80
2013,09,30,18,59,10.80
2013,09,30,19,00,10.80
2013,09,30,19,01,10.80
2013,09,30,19,02,10.70
2013,09,30,19,03,10.70
2013,09,30,19,04,10.70
2013,09,30,19,05,10.70
2013,09,30,19,06,10.70
2013,09,30,19,07,10.70
2013,09,30,19,08,10.70
2013,09,30,19,09,10.70
2013,09,30,19,10,10.70
2013,09,30,19,11,10.70
2013,09,30,19,12,10.70
2013,09,30,19,13,10.70
2013,09,30,19,14,10.60
2013,09,30,19,15,10.60
2013,09,30,19,16,10.60
2013,09,30,19,17,10.60
2013,09,30,19,18,10.50
2013,09,30,19,19,10.40
2013,09,30,19,20,10.40
2013,09,30,19,21,10.30
2013,09,30,19,22,10.30
2013,09,30,19,23,10.30
2013,09,30,19,24,10.20
2013,09,30,19,25,10.20
2013,09,30,19,26,10.10
2013,09,30,19,27,10.10
2013,09,30,19,28,10.00
2013,09,30,19,29,10.00
2013,09,30,19,30,9.90
2013,09,30,19,31,9.90
2013,09,30,19,32,9.90
2013,09,30,19,33,9.80
2013,09,30,19,34,9.80
2013,09,30,19,35,9.80
2013,09,30,19,36,9.70
2013,09,30,19,37,9.70
2013,09,30,19,38,9.70
2013,09,30,19,39,9.70
2013,09,30,19,40,9.70
2013,09,30,19,41,9.70
2013,09,30,19,42,9.70
2013,09,30,19,43,9.70
2013,09,30,19,44,9.70
2013,09,30,19,45,9.70
2013,09,30,19,46,9.60
2013,09,30,19,47,9.60
2013,09,30,19,48,9.60
2013,09,30,19,49,9.60
2013,09,30,19,50,9.60
2013,09,30,19,51,9.60
2013,09,30,19,52,9.60
2013,09,30,19,53,9.60
2013,09,30,19,54,9.60
2013,09,30,19,55,9.60
2013,09,30,19,56,9.50
2013,09,30,19,57,9.50
2013,09,30,19,58,9.50
2013,09,30,19,59,9.50
2013,09,30,20,00,9.50
2013,09,30,20,01,9.50
2013,09,30,20,02,9.50
2013,09,30,20,03,9.50
2013,09,30,20,04,9.50
2013,09,30,20,05,9.50
2013,09,30,20,06,9.50
2013,09,30,20,07,9.50
2013,09,30,20,08,9.50
2013,09,30,20,09,9.50
2013,09,30,20,10,9.50
2013,09,30,20,11,9.50
2013,09,30,20,12,9.50
2013,09,30,20,13,9.60
2013,09,30,20,14,9.60
2013,09,30,20,15,9.60
2013,09,30,20,16,9.60
2013,09,30,20,17,9.60
2013,09,30,20,18,9.60
2013,09,30,20,19,9.60
2013,09,30,20,20,9.60
2013,09,30,20,21,9.60
2013,09,30,20,22,9.70
2013,09,30,20,23,9.70
2013,09,30,20,24,9.70
2013,09,30,20,25,9.70
2013,09,30,20,26,9.60
2013,09,30,20,27,9.60
2013,09,30,20,28,9.60
2013,09,30,20,29,9.60
2013,09,30,20,30,9.60
2013,09,30,20,31,9.50
2013,09,30,20,32,9.50
2013,09,30,20,33,9.40
2013,09,30,20,34,9.40
2013,09,30,20,35,9.40
2013,09,30,20,36,9.30
2013,09,30,20,37,9.30
2013,09,30,20,38,9.20
2013,09,30,20,39,9.20
2013,09,30,20,40,9.20
2013,09,30,20,41,9.10
2013,09,30,20,42,9.10
2013,09,30,20,43,9.00
2013,09,30,20,44,9.00
2013,09,30,20,45,8.90
2013,09,30,20,46,8.90
2013,09,30,20,47,8.90
2013,09,30,20,48,8.80
2013,09,30,20,49,8.80
2013,09,30,20,50,8.80
2013,09,30,20,51,8.80
2013,09,30,20,52,8.70
2013,09,30,20,53,8.70
2013,09,30,20,54,8.60
2013,09,30,20,55,8.60
2013,09,30,20,56,8.60
2013,09,30,20,57,8.60
2013,09,30,20,58,8.50
2013,09,30,20,59,8.50
2013,09,30,21,00,8.40
2013,09,30,21,01,8.40
2013,09,30,21,02,8.40
2013,09,30,21,03,8.40
2013,09,30,21,04,8.40
2013,09,30,21,05,8.40
2013,09,30,21,06,8.40
2013,09,30,21,07,8.30
2013,09,30,21,08,8.30
2013,09,30,21,09,8.30
2013,09,30,21,10,8.40
2013,09,30,21,11,8.30
2013,09,30,21,12,8.30
2013,09,30,21,13,8.30
2013,09,30,21,14,8.30
2013,09,30,21,15,8.30
2013,09,30,21,16,8.30
2013,09,30,21,17,8.20
2013,09,30,21,18,8.20
2013,09,30,21,19,8.20
2013,09,30,21,20,8.20
2013,09,30,21,21,8.20
2013,09,30,21,22,8.10
2013,09,30,21,23,8.10
2013,09,30,21,24,8.10
2013,09,30,21,25,8.00
2013,09,30,21,26,8.00
2013,09,30,21,27,8.00
2013,09,30,21,28,7.90
2013,09,30,21,29,7.90
2013,09,30,21,30,7.90
2013,09,30,21,31,7.90
2013,09,30,21,32,7.90
2013,09,30,21,33,7.80
2013,09,30,21,34,7.80
2013,09,30,21,35,7.80
2013,09,30,21,36,7.80
2013,09,30,21,37,7.80
2013,09,30,21,38,7.80
2013,09,30,21,39,7.80
2013,09,30,21,40,7.80
2013,09,30,21,41,7.80
2013,09,30,21,42,7.80
2013,09,30,21,43,7.70
2013,09,30,21,44,7.70
2013,09,30,21,45,7.70
2013,09,30,21,46,7.70
2013,09,30,21,47,7.70
2013,09,30,21,48,7.70
2013,09,30,21,49,7.70
2013,09,30,21,50,7.70
2013,09,30,21,51,7.70
2013,09,30,21,52,7.70
2013,09,30,21,53,7.60
2013,09,30,21,54,7.60
2013,09,30,21,55,7.60
2013,09,30,21,56,7.60
2013,09,30,21,57,7.60
2013,09,30,21,58,7.60
2013,09,30,21,59,7.60
2013,09,30,22,00,7.60
2013,09,30,22,01,7.60
2013,09,30,22,02,7.60
2013,09,30,22,03,7.60
2013,09,30,22,04,7.60
2013,09,30,22,05,7.60
2013,09,30,22,06,7.60
2013,09,30,22,07,7.60
2013,09,30,22,08,7.60
2013,09,30,22,09,7.60
2013,09,30,22,10,7.60
2013,09,30,22,11,7.60
2013,09,30,22,12,7.60
2013,09,30,22,13,7.50
2013,09,30,22,14,7.50
2013,09,30,22,15,7.50
2013,09,30,22,16,7.50
2013,09,30,22,17,7.50
2013,09,30,22,18,7.50
2013,09,30,22,19,7.50
2013,09,30,22,20,7.50
2013,09,30,22,21,7.50
2013,09,30,22,22,7.50
2013,09,30,22,23,7.50
2013,09,30,22,24,7.50
2013,09,30,22,25,7.50
2013,09,30,22,26,7.50
2013,09,30,22,27,7.50
2013,09,30,22,28,7.50
2013,09,30,22,29,7.50
2013,09,30,22,30,7.50
2013,09,30,22,31,7.50
2013,09,30,22,32,7.50
2013,09,30,22,33,7.50
2013,09,30,22,34,7.50
2013,09,30,22,35,7.50
2013,09,30,22,36,7.60
2013,09,30,22,37,7.60
2013,09,30,22,38,7.60
2013,09,30,22,39,7.70
2013,09,30,22,40,7.80
2013,09,30,22,41,7.80
2013,09,30,22,42,7.80
2013,09,30,22,43,7.90
2013,09,30,22,44,7.90
2013,09,30,22,45,8.00
2013,09,30,22,46,8.00
2013,09,30,22,47,8.00
2013,09,30,22,48,8.00
2013,09,30,22,49,8.00
2013,09,30,22,50,8.00
2013,09,30,22,51,8.00
2013,09,30,22,52,8.00
2013,09,30,22,53,8.00
2013,09,30,22,54,8.00
2013,09,30,22,55,7.90
2013,09,30,22,56,7.90
2013,09,30,22,57,7.90
2013,09,30,22,58,7.90
2013,09,30,22,59,7.90
2013,09,30,23,00,7.90
2013,09,30,23,01,8.00
2013,09,30,23,02,8.00
2013,09,30,23,03,8.00
2013,09,30,23,04,8.00
2013,09,30,23,05,8.00
2013,09,30,23,06,8.00
2013,09,30,23,07,8.00
2013,09,30,23,08,8.00
2013,09,30,23,09,8.00
2013,09,30,23,10,8.00
2013,09,30,23,11,8.00
2013,09,30,23,12,8.00
2013,09,30,23,13,8.00
2013,09,30,23,14,8.00
2013,09,30,23,15,8.00
2013,09,30,23,16,8.00
2013,09,30,23,17,7.90
2013,09,30,23,18,7.90
2013,09,30,23,19,7.90
2013,09,30,23,20,7.90
2013,09,30,23,21,7.90
2013,09,30,23,22,7.80
2013,09,30,23,23,7.80
2013,09,30,23,24,7.80
2013,09,30,23,25,7.80
2013,09,30,23,26,7.80
2013,09,30,23,27,7.90
2013,09,30,23,28,8.00
2013,09,30,23,29,8.00
2013,09,30,23,30,8.10
2013,09,30,23,31,8.10
2013,09,30,23,32,8.20
2013,09,30,23,33,8.20
2013,09,30,23,34,8.30
2013,09,30,23,35,8.30
2013,09,30,23,36,8.40
2013,09,30,23,37,8.40
2013,09,30,23,38,8.40
2013,09,30,23,39,8.40
2013,09,30,23,40,8.40
2013,09,30,23,41,8.40
2013,09,30,23,42,8.40
2013,09,30,23,43,8.40
2013,09,30,23,44,8.40
2013,09,30,23,45,8.30
2013,09,30,23,46,8.30
2013,09,30,23,47,8.30
2013,09,30,23,48,8.30
2013,09,30,23,49,8.30
2013,09,30,23,50,8.30
2013,09,30,23,51,8.30
2013,09,30,23,52,8.20
2013,09,30,23,53,8.20
2013,09,30,23,54,8.20
2013,09,30,23,55,8.20
2013,09,30,23,56,8.10
2013,09,30,23,57,8.10
2013,09,30,23,58,8.10
2013,09,30,23,59,8.00
